Hourly Data Report for October 07, 2016

All times are specified in Local Standard Time (LST). Add 1 hour to adjust for Daylight Saving Time where and when it is observed.

KITCHENER/WATERLOO
ONTARIO

43°27'39.000" N
80°22'43.000" W
321.60 m
6144239
71368
YKF

Download Data

Hourly Data (October 2016)
Hourly Data Report for October 7, 2016
Temp Definition
°C
Dew Point Temp Definition
°C
Rel Hum Definition
%
Wind Dir Definition
10's deg

Wind Spd Definition
km/h
Visibility Definition
km
Stn Press Definition
kPa
Hmdx Definition


Wind Chill Definition


Weather Definition


TIME
00:00 Legend Double Dagger 13.0 12.5 97 11 8 3.2 98.45     Fog
01:00 Legend Double Dagger 12.7 12.2 97 35 8 2.8 98.44     Fog
02:00 Legend Double Dagger 11.3 10.9 97 32 4 0.6 98.45     Fog
03:00 Legend Double Dagger 10.7 10.4 98 9 8 3.2 98.42     Fog
04:00 Legend Double Dagger 10.8 10.5 98   0 0.8 98.42     Fog
05:00 Legend Double Dagger 11.3 11.0 98 5 5 0.2 98.41     Fog
06:00 Legend Double Dagger 11.6 11.3 98 9 8 0.2 98.38     Fog
07:00 Legend Double Dagger 11.5 11.2 98   0 1.6 98.39     Fog
08:00 Legend Double Dagger 14.7 14.4 98 14 5 9.7 98.39     Fog
09:00 Legend Double Dagger 17.0 14.7 86 16 15 16.1 98.35     LegendNANA
10:00 Legend Double Dagger 18.9 14.6 76 18 13 16.1 98.30     LegendNANA
11:00 Legend Double Dagger 19.7 13.9 69 16 13 16.1 98.22     LegendNANA
12:00 Legend Double Dagger 20.8 12.8 60 15 15 11.3 98.15     LegendNANA
13:00 Legend Double Dagger 21.9 12.6 55 20 15 16.1 98.09     LegendNANA
14:00 Legend Double Dagger 22.8 11.3 48 15 21 16.1 97.97 25   LegendNANA
15:00 Legend Double Dagger 23.1 8.7 39 17 21 16.1 97.94     LegendNANA
16:00 Legend Double Dagger 22.8 10.1 44 18 18 16.1 97.93     LegendNANA
17:00 Legend Double Dagger 21.5 11.6 53 19 17 16.1 97.91     LegendNANA
18:00 Legend Double Dagger 18.7 12.3 66 18 11 16.1 97.95     LegendNANA
19:00 Legend Double Dagger 16.3 11.9 75 18 8 16.1 97.95     LegendNANA
20:00 Legend Double Dagger 15.1 12.1 82 16 5 16.1 97.90     LegendNANA
21:00 Legend Double Dagger 13.7 12.4 92 22 4 16.1 97.87     LegendNANA
22:00 Legend Double Dagger 13.8 12.0 89   0 16.1 97.85     LegendNANA
23:00 Legend Double Dagger 15.2 13.2 88 18 8 16.1 97.80     LegendNANA

Notes on Data Quality.

Legend

  • E = Estimated
  • M = Missing
  • NA = Not Available
  • ‡ = Partner data that is not subject to review by the National Climate Archives
Date modified: